DW6860 Weather Reports


time (UTC)temp
C
wind
direction
speed
KPH
gust
KPH
rain 1hr
cm
rain 24hr
cm
rain mn
cm
humidity
%
barometer
mb
20260507074510 11 354 4.8 11.3 0.00 0.00 0.00 72 1015.0
20260507074415 11 332 4.8 11.3 0.00 0.00 0.00 72 1014.9
20260507074010 11 357 4.8 9.7 0.00 0.00 0.00 72 1014.9
20260507073946 11 346 4.8 9.7 0.00 0.00 0.00 72 1014.8
20260507073919 11 56 4.8 9.7 0.00 0.00 0.00 72 1014.9
20260507073511 11 4 4.8 9.7 0.00 0.00 0.00 72 1014.9
20260507073031 11 11 4.8 11.3 0.00 0.00 0.00 73 1015.0
20260507072909 11 28 4.8 11.3 0.00 0.00 0.00 73 1014.8
20260507072509 11 13 4.8 14.5 0.00 0.00 0.00 73 1014.9
20260507072410 10 346 4.8 14.5 0.00 0.00 0.00 73 1014.9
20260507072031 10 16 4.8 14.5 0.00 0.00 0.00 73 1014.9
20260507071913 10 0 4.8 14.5 0.00 0.00 0.00 73 1014.8
20260507071509 10 9 4.8 11.3 0.00 0.00 0.00 74 1014.8
20260507071408 10 346 4.8 9.7 0.00 0.00 0.00 74 1014.8
20260507071009 10 5 4.8 11.3 0.00 0.00 0.00 74 1014.8
20260507070914 10 340 4.8 11.3 0.00 0.00 0.00 74 1014.8
20260507070509 10 8 6.4 14.5 0.00 0.00 0.00 75 1014.8
20260507070418 10 317 6.4 14.5 0.00 0.00 0.00 75 1014.8
20260507070012 10 13 6.4 14.5 0.00 0.00 0.00 75 1014.8
20260507065932 10 24 6.4 14.5 0.00 0.00 0.00 75 1014.8
20260507065509 10 10 4.8 14.5 0.00 0.00 0.00 76 1014.9
20260507065415 10 333 4.8 12.9 0.00 0.00 0.00 76 1014.9
20260507065114 10 25 3.2 9.7 0.00 0.00 0.00 77 1014.7
20260507065039 10 30 4.8 14.5 0.00 0.00 0.00 77 1014.7
20260507065009 10 12 3.2 12.9 0.00 0.00 0.00 76 1014.8
20260507064943 10 21 3.2 12.9 0.00 0.00 0.00 77 1014.7
20260507064509 10 27 3.2 8.0 0.00 0.00 0.00 77 1014.8
20260507064010 10 27 4.8 14.5 0.00 0.00 0.00 77 1014.7
20260507063509 10 26 4.8 14.5 0.00 0.00 0.00 77 1014.8
20260507063413 10 21 3.2 14.5 0.00 0.00 0.00 77 1014.6
20260507063010 10 33 3.2 12.9 0.00 0.00 0.00 77 1014.7
20260507062905 9 29 3.2 12.9 0.00 0.00 0.00 77 1014.6
20260507062511 10 30 4.8 12.9 0.00 0.00 0.00 78 1014.6
20260507062415 9 30 4.8 12.9 0.00 0.00 0.00 78 1014.6
20260507062009 9 24 4.8 12.9 0.00 0.00 0.00 78 1014.6
20260507061909 9 32 4.8 11.3 0.00 0.00 0.00 78 1014.6
20260507061509 9 22 3.2 11.3 0.00 0.00 0.00 78 1014.6
20260507061350 9 13 3.2 11.3 0.00 0.00 0.00 78 1014.6
20260507061329 9 13 3.2 8.0 0.00 0.00 0.00 80 1014.5
20260507061259 9 46 3.2 8.0 0.00 0.00 0.00 79 1014.5
20260507061013 9 24 3.2 9.7 0.00 0.00 0.00 79 1014.5
20260507061010 9 25 3.2 8.0 0.00 0.00 0.00 79 1014.6
20260507060509 9 32 3.2 9.7 0.00 0.00 0.00 79 1014.5
20260507060443 9 57 3.2 9.7 0.00 0.00 0.00 79 1014.5
20260507060011 9 30 3.2 9.7 0.00 0.00 0.00 79 1014.5
20260507055509 9 22 3.2 6.4 0.00 0.00 0.00 80 1014.6
20260507055009 9 24 3.2 8.0 0.00 0.00 0.00 80 1014.5
20260507054847 9 0 3.2 8.0 0.00 0.00 0.00 80 1014.5
20260507054509 8 26 3.2 8.0 0.00 0.00 0.00 80 1014.5
20260507054341 9 31 3.2 8.0 0.00 0.00 0.00 80 1014.4
20260507054009 8 20 3.2 8.0 0.00 0.00 0.00 80 1014.5
20260507053840 9 25 3.2 8.0 0.00 0.00 0.00 80 1014.3
20260507053509 8 12 3.2 8.0 0.00 0.00 0.00 80 1014.4
20260507053334 8 29 3.2 8.0 0.00 0.00 0.00 80 1014.3
20260507053031 8 15 4.8 12.9 0.00 0.00 0.00 80 1014.4
20260507052840 8 334 4.8 12.9 0.00 0.00 0.00 80 1014.3
20260507052510 8 19 4.8 12.9 0.00 0.00 0.00 81 1014.3
20260507052338 8 21 4.8 12.9 0.00 0.00 0.00 81 1014.3
20260507052010 8 19 4.8 11.3 0.00 0.00 0.00 81 1014.4
20260507051838 8 17 3.2 11.3 0.00 0.00 0.00 81 1014.4
20260507051620 8 11 3.2 6.4 0.00 0.00 0.00 81 1014.2
20260507051510 8 25 3.2 6.4 0.00 0.00 0.00 81 1014.3
20260507051427 8 19 1.6 6.4 0.00 0.00 0.00 81 1014.2
20260507051010 8 25 1.6 6.4 0.00 0.00 0.00 81 1014.2
20260507050530 8 20 1.6 8.0 0.00 0.00 0.00 81 1014.2
20260507050528 8 21 3.2 8.0 0.00 0.00 0.00 81 1013.9
20260507050409 8 17 1.6 8.0 0.00 0.00 0.00 81 1014.1
20260507050031 8 27 3.2 8.0 0.00 0.00 0.00 81 1014.0
20260507045509 8 24 3.2 8.0 0.00 0.00 0.00 82 1014.1
20260507045338 8 30 3.2 8.0 0.00 0.00 0.00 82 1014.0
20260507045010 8 18 1.6 8.0 0.00 0.00 0.00 82 1014.0
20260507044853 8 30 1.6 4.8 0.00 0.00 0.00 82 1014.0
20260507044509 8 18 3.2 8.0 0.00 0.00 0.00 82 1014.0
20260507044340 8 350 3.2 8.0 0.00 0.00 0.00 82 1013.9
20260507044009 8 14 3.2 8.0 0.00 0.00 0.00 82 1013.9
20260507043838 8 24 3.2 8.0 0.00 0.00 0.00 82 1013.8
20260507043509 8 13 1.6 6.4 0.00 0.00 0.00 82 1013.9
20260507043338 8 29 1.6 6.4 0.00 0.00 0.00 82 1013.8
20260507043049 8 18 1.6 6.4 0.00 0.00 0.00 82 1013.7
20260507043010 8 8 1.6 6.4 0.00 0.00 0.00 82 1013.7
20260507042511 8 13 1.6 6.4 0.00 0.00 0.00 82 1013.7
20260507042328 8 348 1.6 6.4 0.00 0.00 0.00 82 1013.7
20260507042010 8 12 1.6 6.4 0.00 0.00 0.00 82 1013.7
20260507041834 8 19 1.6 6.4 0.00 0.00 0.00 82 1013.7
20260507041509 8 12 3.2 11.3 0.00 0.00 0.00 82 1013.7
20260507041326 8 34 3.2 11.3 0.00 0.00 0.00 82 1013.6
20260507041009 8 15 4.8 11.3 0.00 0.00 0.00 82 1013.6
20260507040838 8 18 4.8 11.3 0.00 0.00 0.00 82 1013.5
20260507040530 8 16 3.2 8.0 0.00 0.00 0.00 82 1013.5
20260507040328 8 355 3.2 8.0 0.00 0.00 0.00 82 1013.5
20260507040010 8 16 3.2 6.4 0.00 0.00 0.00 81 1013.4
20260507035840 8 17 3.2 9.7 0.00 0.00 0.00 81 1013.5
20260507035827 8 0 3.2 8.0 0.00 0.00 0.00 81 1013.5
20260507035530 8 20 3.2 9.7 0.00 0.00 0.00 81 1013.4
20260507035010 8 14 3.2 9.7 0.00 0.00 0.00 81 1013.4
20260507034826 8 31 3.2 9.7 0.00 0.00 0.00 81 1013.3
20260507034530 8 11 3.2 8.0 0.00 0.00 0.00 81 1013.5
20260507034314 8 348 3.2 8.0 0.00 0.00 0.00 81 1013.4
20260507034010 8 17 3.2 8.0 0.00 0.00 0.00 81 1013.3
20260507033811 8 340 3.2 8.0 0.00 0.00 0.00 81 1013.4
20260507033509 8 16 3.2 8.0 0.00 0.00 0.00 81 1013.4
20260507033316 8 28 3.2 6.4 0.00 0.00 0.00 81 1013.3
20260507033046 8 19 1.6 4.8 0.00 0.00 0.00 81 1013.4
20260507033011 8 6 1.6 6.4 0.00 0.00 0.00 81 1013.5
20260507032530 8 355 1.6 4.8 0.00 0.00 0.00 81 1013.4
20260507032323 8 346 1.6 6.4 0.00 0.00 0.00 81 1013.3
20260507032010 8 360 1.6 6.4 0.00 0.00 0.00 81 1013.3
20260507031816 8 15 1.6 6.4 0.00 0.00 0.00 81 1013.3
20260507031744 8 13 1.6 6.4 0.00 0.00 0.00 81 1013.2
20260507031510 8 360 1.6 6.4 0.00 0.00 0.00 81 1013.3
20260507031010 8 7 1.6 6.4 0.00 0.00 0.00 81 1013.2
20260507030814 9 0 1.6 4.8 0.00 0.00 0.00 81 1013.2
20260507030530 8 17 1.6 4.8 0.00 0.00 0.00 81 1013.2
20260507030310 9 19 1.6 4.8 0.00 0.00 0.00 81 1013.1
20260507030010 8 22 3.2 6.4 0.00 0.00 0.00 81 1013.2
20260507025808 9 5 1.6 6.4 0.00 0.00 0.00 81 1013.1
20260507025509 8 22 1.6 6.4 0.00 0.00 0.00 81 1013.1
20260507025318 9 18 1.6 6.4 0.00 0.00 0.00 81 1013.1
20260507025010 8 20 1.6 8.0 0.00 0.00 0.00 80 1013.2
20260507024816 9 20 3.2 8.0 0.00 0.00 0.00 80 1013.1
20260507024509 8 21 3.2 8.0 0.00 0.00 0.00 80 1013.1
20260507024315 9 5 3.2 8.0 0.00 0.00 0.00 80 1013.1
20260507024010 8 23 3.2 6.4 0.00 0.00 0.00 80 1013.1
20260507023813 9 27 3.2 6.4 0.00 0.00 0.00 80 1013.1
20260507023509 8 12 1.6 6.4 0.00 0.00 0.00 80 1013.1
20260507023308 9 28 1.6 6.4 0.00 0.00 0.00 80 1013.1
20260507023009 8 15 3.2 8.0 0.00 0.00 0.00 80 1013.1
20260507022806 9 11 3.2 8.0 0.00 0.00 0.00 80 1013.0
20260507022509 8 22 3.2 8.0 0.00 0.00 0.00 80 1013.1
20260507022307 9 15 3.2 8.0 0.00 0.00 0.00 80 1013.0
20260507022009 9 23 3.2 6.4 0.00 0.00 0.00 80 1013.0
20260507021854 9 25 1.6 6.4 0.00 0.00 0.00 80 1012.9
20260507021826 9 20 3.2 6.4 0.00 0.00 0.00 80 1012.9
20260507021509 9 21 3.2 6.4 0.00 0.00 0.00 80 1013.0
20260507021011 9 23 1.6 6.4 0.00 0.00 0.00 80 1012.9
20260507020813 9 17 3.2 6.4 0.00 0.00 0.00 80 1012.8
20260507020530 9 22 3.2 6.4 0.00 0.00 0.00 79 1012.9
20260507020313 9 26 3.2 6.4 0.00 0.00 0.00 79 1012.8
20260507020009 9 22 3.2 6.4 0.00 0.00 0.00 79 1012.8
20260507015817 9 0 3.2 6.4 0.00 0.00 0.00 79 1012.8
20260507015509 9 27 1.6 4.8 0.00 0.00 0.00 79 1012.8
20260507015257 9 26 1.6 4.8 0.00 0.00 0.00 79 1012.7
20260507015009 9 25 1.6 4.8 0.00 0.00 0.00 78 1012.7
20260507014844 10 30 0.0 3.2 0.00 0.00 0.00 77 1012.6
20260507014836 9 28 1.6 4.8 0.00 0.00 0.00 78 1012.6
20260507014803 9 28 1.6 4.8 0.00 0.00 0.00 78 1012.7
20260507014509 9 11 1.6 4.8 0.00 0.00 0.00 78 1012.7
20260507014012 9 19 0.0 4.8 0.00 0.00 0.00 78 1012.6
20260507013759 9 345 0.0 4.8 0.00 0.00 0.00 77 1012.6
20260507013530 10 44 0.0 3.2 0.00 0.00 0.00 77 1012.6
20260507013030 10 58 0.0 3.2 0.00 0.00 0.00 76 1012.6
20260507013009 10 58 0.0 1.6 0.00 0.00 0.00 77 1012.7
20260507012846 10 58 0.0 1.6 0.00 0.00 0.00 77 1012.6
20260507012509 10 58 0.0 3.2 0.00 0.00 0.00 77 1012.6
20260507012309 10 58 0.0 3.2 0.00 0.00 0.00 76 1012.6
20260507012009 10 58 0.0 3.2 0.00 0.00 0.00 76 1012.5
20260507011510 10 60 0.0 4.8 0.00 0.00 0.00 76 1012.6
20260507011236 10 58 0.0 4.8 0.00 0.00 0.00 76 1012.6
20260507011009 10 61 0.0 4.8 0.00 0.00 0.00 76 1012.6
20260507010737 10 64 0.0 4.8 0.00 0.00 0.00 76 1012.6
20260507010530 10 0 0.0 0.0 0.00 0.00 0.00 75 1012.6
20260507010324 10 74 0.0 3.2 0.00 0.00 0.00 75 1012.5
20260507010253 10 74 0.0 1.6 0.00 0.00 0.00 75 1012.5
20260507010010 10 74 0.0 3.2 0.00 0.00 0.00 75 1012.5
20260507005508 10 69 0.0 4.8 0.00 0.00 0.00 75 1012.5
20260507005234 10 74 0.0 4.8 0.00 0.00 0.00 75 1012.4
20260507005009 10 46 0.0 4.8 0.00 0.00 0.00 75 1012.4
20260507004728 10 74 1.6 4.8 0.00 0.00 0.00 75 1012.3
20260507004510 10 24 0.0 4.8 0.00 0.00 0.00 75 1012.3
20260507004235 10 24 0.0 4.8 0.00 0.00 0.00 75 1012.2
20260507004009 11 24 0.0 3.2 0.00 0.00 0.00 75 1012.3
20260507003721 11 24 0.0 1.6 0.00 0.00 0.00 75 1012.2
20260507003509 11 24 0.0 1.6 0.00 0.00 0.00 75 1012.2
20260507003233 11 24 0.0 1.6 0.00 0.00 0.00 75 1012.2
20260507003010 11 24 0.0 1.6 0.00 0.00 0.00 75 1012.2
20260507002713 11 24 0.0 0.0 0.00 0.00 0.00 75 1012.1
20260507002509 11 0 0.0 0.0 0.00 0.00 0.00 75 1012.2
20260507002208 11 24 0.0 0.0 0.00 0.00 0.00 75 1012.1
20260507002030 11 0 0.0 0.0 0.00 0.00 0.00 75 1012.2
20260507001709 11 24 0.0 0.0 0.00 0.00 0.00 75 1012.0
20260507001509 11 24 0.0 1.6 0.00 0.00 0.00 75 1012.1
20260507001208 11 24 0.0 1.6 0.00 0.00 0.00 74 1012.0
20260507001010 11 24 0.0 1.6 0.00 0.00 0.00 74 1012.1
20260507000719 11 24 0.0 1.6 0.00 0.00 0.00 74 1012.1
20260507000510 11 24 0.0 1.6 0.00 0.00 0.00 74 1012.1
20260507000216 11 24 0.0 1.6 0.00 0.00 0.00 74 1012.1
20260507000009 11 24 0.0 1.6 0.00 0.00 0.00 74 1012.2
20260506235655 11 24 0.0 0.0 0.00 0.00 0.00 74 1012.1
20260506235509 11 0 0.0 0.0 0.00 0.00 0.00 74 1012.1
20260506235239 11 24 0.0 0.0 0.00 0.00 0.00 73 1012.0
20260506235010 11 0 0.0 0.0 0.00 0.00 0.00 73 1012.2
20260506234640 11 24 0.0 0.0 0.00 0.00 0.00 73 1011.9
20260506234508 11 0 0.0 0.0 0.00 0.00 0.00 73 1012.1
20260506234138 11 24 0.0 0.0 0.00 0.00 0.00 73 1012.0
20260506234031 11 0 0.0 0.0 0.00 0.00 0.00 73 1012.0
20260506233635 11 24 0.0 0.0 0.00 0.00 0.00 73 1011.9
20260506233509 11 0 0.0 0.0 0.00 0.00 0.00 74 1012.0
20260506233132 11 24 0.0 0.0 0.00 0.00 0.00 73 1011.8
20260506233030 11 0 0.0 0.0 0.00 0.00 0.00 73 1011.9
20260506232640 11 24 0.0 0.0 0.00 0.00 0.00 73 1011.9
20260506232556 11 24 0.0 0.0 0.00 0.00 0.00 73 1011.8
20260506232509 11 0 0.0 0.0 0.00 0.00 0.00 73 1011.9
20260506232030 11 0 0.0 0.0 0.00 0.00 0.00 73 1011.9
20260506231726 11 23 0.0 0.0 0.00 0.00 0.00 72 1011.8
20260506231655 11 24 0.0 0.0 0.00 0.00 0.00 73 1011.9
20260506231509 11 0 0.0 0.0 0.00 0.00 0.00 73 1012.0
20260506231146 11 23 0.0 0.0 0.00 0.00 0.00 72 1011.9
20260506231009 11 0 0.0 0.0 0.00 0.00 0.00 72 1011.9
20260506230509 11 0 0.0 0.0 0.00 0.00 0.00 72 1011.8
20260506230150 11 23 0.0 0.0 0.00 0.00 0.00 72 1011.7
20260506230143 11 23 0.0 0.0 0.00 0.00 0.00 72 1011.7
20260506230012 11 0 0.0 0.0 0.00 0.00 0.00 72 1011.8
20260506225509 11 0 0.0 0.0 0.00 0.00 0.00 72 1011.7
20260506225117 11 23 0.0 1.6 0.00 0.00 0.00 72 1011.7
20260506225041 11 23 0.0 1.6 0.00 0.00 0.00 71 1011.7
20260506225010 11 23 0.0 1.6 0.00 0.00 0.00 72 1011.7
20260506224508 11 23 0.0 1.6 0.00 0.00 0.00 72 1011.7
20260506224113 11 23 0.0 1.6 0.00 0.00 0.00 71 1011.7
20260506224009 11 23 0.0 1.6 0.00 0.00 0.00 71 1011.7
20260506223607 11 23 0.0 1.6 0.00 0.00 0.00 71 1011.6
20260506223509 11 23 0.0 1.6 0.00 0.00 0.00 71 1011.7
20260506223111 11 23 0.0 1.6 0.00 0.00 0.00 71 1011.6
20260506223010 11 23 0.0 1.6 0.00 0.00 0.00 71 1011.6
20260506222646 11 23 0.0 1.6 0.00 0.00 0.00 71 1011.7
20260506222641 11 23 0.0 1.6 0.00 0.00 0.00 71 1011.7
20260506222624 11 23 0.0 1.6 0.00 0.00 0.00 71 1011.6
20260506222509 11 23 0.0 1.6 0.00 0.00 0.00 71 1011.6
20260506222009 11 23 0.0 1.6 0.00 0.00 0.00 71 1011.8
20260506221510 11 23 0.0 1.6 0.00 0.00 0.00 71 1011.8
20260506221116 11 23 0.0 1.6 0.00 0.00 0.00 71 1011.7
20260506221011 11 23 0.0 1.6 0.00 0.00 0.00 71 1011.8
20260506220606 11 23 0.0 1.6 0.00 0.00 0.00 71 1011.7
20260506220509 11 0 0.0 0.0 0.00 0.00 0.00 71 1011.7
20260506220115 11 23 0.0 1.6 0.00 0.00 0.00 71 1011.7
20260506220038 11 23 0.0 1.6 0.00 0.00 0.00 71 1011.7
20260506215615 11 23 0.0 1.6 0.00 0.00 0.00 71 1011.7
20260506215509 11 23 0.0 1.6 0.00 0.00 0.00 71 1011.7
20260506215104 11 23 0.0 3.2 0.00 0.00 0.00 71 1011.7
20260506215009 11 23 0.0 3.2 0.00 0.00 0.00 71 1011.7
20260506214624 11 23 0.0 3.2 0.00 0.00 0.00 71 1011.8
20260506214554 11 23 0.0 3.2 0.00 0.00 0.00 71 1011.6
20260506214509 11 23 0.0 3.2 0.00 0.00 0.00 71 1011.7
20260506214009 11 23 0.0 3.2 0.00 0.00 0.00 71 1011.8
20260506213547 11 23 0.0 3.2 0.00 0.00 0.00 71 1011.7
20260506213511 11 23 0.0 3.2 0.00 0.00 0.00 71 1011.7
20260506213038 11 23 0.0 3.2 0.00 0.00 0.00 71 1011.7
20260506213009 11 23 0.0 3.2 0.00 0.00 0.00 71 1011.7
20260506212546 11 23 0.0 1.6 0.00 0.00 0.00 71 1011.6
20260506212531 11 23 0.0 1.6 0.00 0.00 0.00 71 1011.6
20260506212043 11 23 0.0 4.8 0.00 0.00 0.00 71 1011.6
20260506212030 11 23 0.0 4.8 0.00 0.00 0.00 71 1011.7
20260506211532 11 23 0.0 4.8 0.00 0.00 0.00 70 1011.5
20260506211510 11 23 0.0 4.8 0.00 0.00 0.00 70 1011.6
20260506211045 11 23 0.0 1.6 0.00 0.00 0.00 70 1011.5
20260506211009 11 23 0.0 1.6 0.00 0.00 0.00 70 1011.6
20260506210605 11 23 0.0 0.0 0.00 0.00 0.00 70 1011.5
20260506210509 11 0 0.0 0.0 0.00 0.00 0.00 70 1011.6
20260506210103 11 23 0.0 1.6 0.00 0.00 0.00 70 1011.5
20260506210009 11 23 0.0 1.6 0.00 0.00 0.00 70 1011.5
20260506205537 11 23 0.0 1.6 0.00 0.00 0.00 70 1011.5
20260506205510 11 23 0.0 1.6 0.00 0.00 0.00 70 1011.5
20260506205055 11 23 0.0 1.6 0.00 0.00 0.00 69 1011.4
20260506205009 11 23 0.0 1.6 0.00 0.00 0.00 69 1011.5
20260506204539 11 23 0.0 1.6 0.00 0.00 0.00 69 1011.4
20260506204509 11 23 0.0 1.6 0.00 0.00 0.00 69 1011.4
20260506204041 11 23 0.0 1.6 0.00 0.00 0.00 69 1011.4
20260506204009 11 23 0.0 1.6 0.00 0.00 0.00 69 1011.4
20260506203544 11 23 0.0 0.0 0.00 0.00 0.00 69 1011.4
20260506203510 11 0 0.0 0.0 0.00 0.00 0.00 69 1011.4
20260506203048 11 23 0.0 1.6 0.00 0.00 0.00 69 1011.4
20260506203009 11 23 0.0 1.6 0.00 0.00 0.00 69 1011.4
20260506202822 11 23 0.0 1.6 0.00 0.00 0.00 69 1011.3
20260506202705 11 23 0.0 1.6 0.00 0.00 0.00 69 1011.4
20260506202509 11 23 0.0 1.6 0.00 0.00 0.00 69 1011.4
20260506202009 11 23 0.0 1.6 0.00 0.00 0.00 69 1011.3
20260506201601 11 23 0.0 3.2 0.00 0.00 0.00 69 1011.2
20260506201509 11 23 0.0 3.2 0.00 0.00 0.00 68 1011.2
20260506201221 11 23 0.0 3.2 0.00 0.00 0.00 68 1011.2
20260506201059 11 23 0.0 3.2 0.00 0.00 0.00 68 1011.2
20260506201011 11 23 0.0 3.2 0.00 0.00 0.00 68 1011.2
20260506200508 11 23 0.0 3.2 0.00 0.00 0.00 68 1011.3
20260506200120 11 23 0.0 3.2 0.00 0.00 0.00 68 1011.3
20260506200038 11 23 0.0 3.2 0.00 0.00 0.00 68 1011.2
20260506200031 11 23 0.0 3.2 0.00 0.00 0.00 68 1011.3
20260506195509 11 23 0.0 3.2 0.00 0.00 0.00 68 1011.3
20260506195011 11 23 0.0 1.6 0.00 0.00 0.00 68 1011.1
20260506195009 11 23 0.0 1.6 0.00 0.00 0.00 68 1011.1
20260506194514 11 23 0.0 1.6 0.00 0.00 0.00 68 1011.1
20260506194508 11 23 0.0 1.6 0.00 0.00 0.00 68 1011.2
20260506194032 11 23 0.0 1.6 0.00 0.00 0.00 68 1011.1
20260506194009 11 23 0.0 1.6 0.00 0.00 0.00 68 1011.1
20260506193943 11 23 1.6 6.4 0.00 0.00 0.00 67 1010.8
20260506193633 11 23 0.0 1.6 0.00 0.00 0.00 68 1011.0
20260506193510 11 23 0.0 1.6 0.00 0.00 0.00 68 1011.1
20260506193009 11 23 0.0 1.6 0.00 0.00 0.00 68 1011.0
20260506193004 11 23 0.0 1.6 0.00 0.00 0.00 68 1011.0
20260506192926 11 23 0.0 3.2 0.00 0.00 0.00 67 1010.9
20260506192851 11 23 3.2 6.4 0.00 0.00 0.00 67 1010.8
20260506192624 11 23 0.0 3.2 0.00 0.00 0.00 68 1010.8
20260506192511 11 23 0.0 3.2 0.00 0.00 0.00 68 1010.9
20260506192009 11 23 0.0 3.2 0.00 0.00 0.00 67 1010.9
20260506191531 11 23 1.6 6.4 0.00 0.00 0.00 67 1010.8
20260506191009 11 23 1.6 6.4 0.00 0.00 0.00 67 1010.7
20260506190530 11 24 3.2 6.4 0.00 0.00 0.00 67 1010.7
20260506190419 11 23 3.2 6.4 0.00 0.00 0.00 67 1010.7
20260506190009 11 45 3.2 6.4 0.00 0.00 0.00 67 1010.7
20260506185923 11 23 3.2 6.4 0.00 0.00 0.00 67 1010.7
20260506185509 11 50 1.6 6.4 0.00 0.00 0.00 67 1010.6
20260506185415 11 34 1.6 6.4 0.00 0.00 0.00 67 1010.5
20260506185008 11 41 1.6 4.8 0.00 0.00 0.00 67 1010.6
20260506184950 11 25 1.6 6.4 0.00 0.00 0.00 67 1010.5
20260506184921 11 49 1.6 4.8 0.00 0.00 0.00 67 1010.6
20260506184508 11 37 1.6 6.4 0.00 0.00 0.00 67 1010.5
20260506184136 11 55 1.6 6.4 0.00 0.00 0.00 67 1010.3
20260506184009 12 37 1.6 6.4 0.00 0.00 0.00 67 1010.5
20260506183951 11 45 1.6 6.4 0.00 0.00 0.00 67 1010.4
20260506183511 12 33 1.6 6.4 0.00 0.00 0.00 67 1010.4
20260506183030 12 32 1.6 6.4 0.00 0.00 0.00 67 1010.3
20260506182915 12 22 1.6 6.4 0.00 0.00 0.00 67 1010.3
20260506182508 12 32 1.6 6.4 0.00 0.00 0.00 67 1010.3
20260506182411 12 59 1.6 6.4 0.00 0.00 0.00 67 1010.2
20260506182009 12 23 1.6 6.4 0.00 0.00 0.00 67 1010.2
20260506181909 12 38 1.6 6.4 0.00 0.00 0.00 67 1010.1
20260506181718 12 26 1.6 4.8 0.00 0.00 0.00 67 1010.1
20260506181628 12 24 3.2 12.9 0.00 0.00 0.00 66 1009.7
20260506181557 12 26 1.6 8.0 0.00 0.00 0.00 67 1010.0
20260506181511 12 28 1.6 4.8 0.00 0.00 0.00 67 1010.1
20260506181420 12 26 1.6 4.8 0.00 0.00 0.00 67 1010.1
20260506181009 12 36 1.6 8.0 0.00 0.00 0.00 67 1010.1
20260506180738 12 46 3.2 6.4 0.00 0.00 0.00 67 1009.8
20260506180509 12 42 1.6 8.0 0.00 0.00 0.00 67 1010.0
20260506180449 12 55 1.6 8.0 0.00 0.00 0.00 66 1009.9
20260506180010 12 39 1.6 4.8 0.00 0.00 0.00 67 1009.9
20260506175509 12 40 3.2 12.9 0.00 0.00 0.00 66 1009.8
20260506175009 12 40 3.2 12.9 0.00 0.00 0.00 66 1009.7
20260506174850 12 36 3.2 12.9 0.00 0.00 0.00 66 1009.7
20260506174530 12 34 3.2 9.7 0.00 0.00 0.00 67 1009.8
20260506174348 12 69 3.2 9.7 0.00 0.00 0.00 67 1009.7
20260506174009 12 36 3.2 9.7 0.00 0.00 0.00 67 1009.7
20260506173847 12 18 3.2 9.7 0.00 0.00 0.00 67 1009.7
20260506173554 12 43 6.4 14.5 0.00 0.00 0.00 67 1009.5
20260506173508 12 30 4.8 11.3 0.00 0.00 0.00 67 1009.6
20260506173420 12 44 4.8 11.3 0.00 0.00 0.00 67 1009.6
20260506173009 12 27 4.8 11.3 0.00 0.00 0.00 67 1009.6
20260506172930 12 25 6.4 14.5 0.00 0.00 0.00 67 1009.5
20260506172854 12 26 4.8 11.3 0.00 0.00 0.00 67 1009.6
20260506172508 12 26 6.4 14.5 0.00 0.00 0.00 67 1009.5
20260506172008 12 27 6.4 14.5 0.00 0.00 0.00 67 1009.6
20260506171529 12 24 6.4 14.5 0.00 0.00 0.00 67 1009.6
20260506171339 12 35 6.4 14.5 0.00 0.00 0.00 67 1009.5
20260506171009 12 28 6.4 12.9 0.00 0.00 0.00 67 1009.5
20260506170842 12 30 6.4 14.5 0.00 0.00 0.00 67 1009.4
20260506170529 12 30 6.4 19.3 0.00 0.00 0.00 67 1009.4
20260506170336 12 22 8.0 19.3 0.00 0.00 0.00 67 1009.4
20260506170009 12 22 8.0 19.3 0.00 0.00 0.00 67 1009.4
20260506165843 12 15 8.0 19.3 0.00 0.00 0.00 68 1009.3
20260506165508 12 16 4.8 14.5 0.00 0.00 0.00 68 1009.3
20260506165338 12 355 4.8 12.9 0.00 0.00 0.00 69 1009.3
20260506165009 12 18 4.8 12.9 0.00 0.00 0.00 69 1009.3
20260506164834 12 16 4.8 11.3 0.00 0.00 0.00 70 1009.2
20260506164508 12 19 3.2 11.3 0.00 0.00 0.00 70 1009.3
20260506164336 12 355 4.8 11.3 0.00 0.00 0.00 70 1009.3
20260506164009 12 16 4.8 12.9 0.00 0.00 0.00 70 1009.3
20260506163837 12 13 4.8 12.9 0.00 0.00 0.00 70 1009.3
20260506163508 12 16 6.4 12.9 0.00 0.00 0.00 70 1009.4
20260506163330 12 36 6.4 14.5 0.00 0.00 0.00 69 1009.4
20260506163010 12 24 6.4 19.3 0.00 0.00 0.00 69 1009.4
20260506162833 12 346 8.0 19.3 0.00 0.00 0.00 69 1009.5
20260506162530 12 29 6.4 19.3 0.00 0.00 0.00 69 1009.5
20260506162327 12 76 8.0 19.3 0.00 0.00 0.00 69 1009.5
20260506162009 12 29 6.4 17.7 0.00 0.00 0.00 69 1009.4
20260506161837 12 32 6.4 17.7 0.00 0.00 0.00 69 1009.5
20260506161529 12 25 8.0 17.7 0.00 0.00 0.00 69 1009.5
20260506161342 12 21 8.0 17.7 0.00 0.00 0.00 69 1009.3
20260506161008 12 25 8.0 17.7 0.00 0.00 0.00 69 1009.5
20260506160833 12 337 9.7 17.7 0.00 0.00 0.00 69 1009.4
20260506160510 12 29 9.7 20.9 0.00 0.00 0.00 68 1009.5
20260506160329 12 27 9.7 20.9 0.00 0.00 0.00 68 1009.4
20260506160009 12 28 11.3 30.6 0.00 0.00 0.00 67 1009.5
20260506155926 12 22 6.4 30.6 0.00 0.00 0.00 66 1009.4
20260506155843 12 28 9.7 30.6 0.00 0.00 0.00 67 1009.5
20260506155530 12 29 8.0 30.6 0.00 0.00 0.00 66 1009.5
20260506155009 12 30 6.4 17.7 0.00 0.00 0.00 66 1009.4
20260506154829 12 32 6.4 16.1 0.00 0.00 0.00 66 1009.4
20260506154508 12 26 8.0 17.7 0.00 0.00 0.00 65 1009.4
20260506154326 12 20 8.0 17.7 0.00 0.00 0.00 65 1009.3
20260506154030 12 27 9.7 17.7 0.00 0.00 0.00 64 1009.4
20260506153827 12 40 9.7 17.7 0.00 0.00 0.00 64 1009.4
20260506153508 12 22 9.7 17.7 0.00 0.00 0.00 64 1009.4
20260506153330 12 18 9.7 17.7 0.00 0.00 0.00 64 1009.4
20260506153030 12 18 9.7 17.7 0.00 0.00 0.00 63 1009.3
20260506152830 12 355 8.0 17.7 0.00 0.00 0.00 62 1009.4
20260506152509 12 26 8.0 17.7 0.00 0.00 0.00 62 1009.4
20260506152451 12 24 8.0 17.7 0.00 0.00 0.00 61 1009.2
20260506152352 12 11 8.0 17.7 0.00 0.00 0.00 62 1009.3
20260506152008 12 27 8.0 17.7 0.00 0.00 0.00 61 1009.2
20260506151825 12 65 8.0 17.7 0.00 0.00 0.00 61 1009.2
20260506151509 12 23 8.0 17.7 0.00 0.00 0.00 61 1009.3
20260506151008 12 27 8.0 17.7 0.00 0.00 0.00 61 1009.2
20260506150818 12 12 6.4 16.1 0.00 0.00 0.00 61 1009.2
20260506150508 12 28 6.4 14.5 0.00 0.00 0.00 61 1009.1
20260506150319 13 28 6.4 14.5 0.00 0.00 0.00 61 1009.2
20260506150009 13 26 6.4 17.7 0.00 0.00 0.00 61 1009.2
20260506145836 13 24 6.4 17.7 0.00 0.00 0.00 61 1009.1
20260506145510 13 27 6.4 17.7 0.00 0.00 0.00 61 1009.1
20260506145333 13 36 6.4 17.7 0.00 0.00 0.00 60 1009.2
20260506145011 13 33 6.4 17.7 0.00 0.00 0.00 60 1009.1
20260506144826 13 21 4.8 17.7 0.00 0.00 0.00 60 1009.1
20260506144510 13 32 6.4 17.7 0.00 0.00 0.00 60 1009.0
20260506144324 13 101 4.8 12.9 0.00 0.00 0.00 60 1009.1
20260506144008 13 25 4.8 12.9 0.00 0.00 0.00 60 1009.0
20260506143827 13 351 4.8 12.9 0.00 0.00 0.00 60 1009.1
20260506143509 13 25 4.8 12.9 0.00 0.00 0.00 59 1009.1
20260506143313 13 22 6.4 19.3 0.00 0.00 0.00 59 1009.1
20260506143009 13 22 6.4 19.3 0.00 0.00 0.00 59 1009.1
20260506142827 13 25 8.0 19.3 0.00 0.00 0.00 59 1008.9
20260506142529 13 23 6.4 19.3 0.00 0.00 0.00 59 1009.1
20260506142316 13 15 6.4 19.3 0.00 0.00 0.00 58 1009.0
20260506142009 13 23 6.4 19.3 0.00 0.00 0.00 58 1009.0
20260506141817 13 15 6.4 19.3 0.00 0.00 0.00 57 1008.9
20260506141508 13 19 6.4 14.5 0.00 0.00 0.00 57 1009.0
20260506141432 13 351 8.0 17.7 0.00 0.00 0.00 56 1009.0
20260506141345 13 32 6.4 14.5 0.00 0.00 0.00 57 1009.0
20260506141009 13 19 6.4 17.7 0.00 0.00 0.00 56 1008.9
20260506140511 13 23 8.0 17.7 0.00 0.00 0.00 55 1009.0
20260506140320 13 21 8.0 17.7 0.00 0.00 0.00 55 1009.0
20260506140009 13 27 8.0 20.9 0.00 0.00 0.00 55 1008.9
20260506135819 13 15 8.0 20.9 0.00 0.00 0.00 55 1008.9
20260506135508 14 26 8.0 20.9 0.00 0.00 0.00 55 1008.9
20260506135312 14 42 9.7 20.9 0.00 0.00 0.00 55 1008.8
20260506135009 14 25 9.7 17.7 0.00 0.00 0.00 55 1008.9
20260506134812 14 63 8.0 17.7 0.00 0.00 0.00 55 1008.9
20260506134509 14 27 8.0 17.7 0.00 0.00 0.00 55 1008.9
20260506134309 14 27 8.0 17.7 0.00 0.00 0.00 55 1008.8
20260506134010 14 28 8.0 17.7 0.00 0.00 0.00 55 1008.7
20260506133945 14 20 9.7 17.7 0.00 0.00 0.00 55 1008.6
20260506133833 14 25 8.0 17.7 0.00 0.00 0.00 56 1008.7
20260506133508 14 29 8.0 17.7 0.00 0.00 0.00 55 1008.7
20260506133008 14 28 9.7 22.5 0.00 0.00 0.00 55 1008.6
20260506132811 14 55 9.7 22.5 0.00 0.00 0.00 54 1008.6
20260506132508 14 31 9.7 22.5 0.00 0.00 0.00 53 1008.6
20260506132306 14 27 8.0 22.5 0.00 0.00 0.00 53 1008.6
20260506132008 14 33 8.0 20.9 0.00 0.00 0.00 53 1008.7
20260506131801 14 32 8.0 20.9 0.00 0.00 0.00 54 1008.6
20260506131508 14 35 8.0 20.9 0.00 0.00 0.00 54 1008.6
20260506131359 14 23 9.7 22.5 0.00 0.00 0.00 54 1008.5
20260506131321 14 64 9.7 20.9 0.00 0.00 0.00 54 1008.6
20260506131008 14 32 9.7 22.5 0.00 0.00 0.00 54 1008.6
20260506130617 14 355 8.0 20.9 0.00 0.00 0.00 57 1008.5
20260506130508 14 26 9.7 22.5 0.00 0.00 0.00 54 1008.6
20260506130408 14 28 9.7 24.1 0.00 0.00 0.00 54 1008.5
20260506130029 14 30 9.7 24.1 0.00 0.00 0.00 54 1008.6
20260506125836 14 5 9.7 24.1 0.00 0.00 0.00 55 1008.5
20260506125508 14 35 9.7 24.1 0.00 0.00 0.00 55 1008.5
20260506125325 14 0 8.0 19.3 0.00 0.00 0.00 56 1008.5
20260506125009 14 31 8.0 17.7 0.00 0.00 0.00 57 1008.6
20260506124640 14 30 9.7 19.3 0.00 0.00 0.00 57 1008.5
20260506124508 14 29 9.7 20.9 0.00 0.00 0.00 58 1008.5
20260506124420 14 24 11.3 20.9 0.00 0.00 0.00 58 1008.5
20260506124030 14 30 11.3 20.9 0.00 0.00 0.00 57 1008.5
20260506123930 14 0 9.7 22.5 0.00 0.00 0.00 57 1008.5
20260506123831 14 20 9.7 19.3 0.00 0.00 0.00 57 1008.5
20260506123529 14 28 9.7 19.3 0.00 0.00 0.00 57 1008.6
20260506123008 14 31 9.7 22.5 0.00 0.00 0.00 57 1008.5
20260506122508 14 34 9.7 22.5 0.00 0.00 0.00 56 1008.4
20260506122257 14 26 8.0 22.5 0.00 0.00 0.00 56 1008.3
20260506122030 14 30 9.7 22.5 0.00 0.00 0.00 58 1008.4
20260506121948 14 17 9.7 22.5 0.00 0.00 0.00 58 1008.3
20260506121820 14 46 9.7 17.7 0.00 0.00 0.00 58 1008.2
20260506121508 14 26 9.7 20.9 0.00 0.00 0.00 58 1008.3
20260506121009 14 29 9.7 22.5 0.00 0.00 0.00 58 1008.2
20260506120756 14 38 11.3 22.5 0.00 0.00 0.00 57 1008.2
20260506120508 14 33 11.3 24.1 0.00 0.00 0.00 56 1008.3
20260506120257 15 15 11.3 24.1 0.00 0.00 0.00 57 1008.4
20260506120010 15 26 11.3 24.1 0.00 0.00 0.00 57 1008.2
20260506115752 15 40 9.7 24.1 0.00 0.00 0.00 56 1008.3
20260506115508 15 20 9.7 22.5 0.00 0.00 0.00 56 1008.2
20260506115306 15 14 9.7 20.9 0.00 0.00 0.00 55 1008.2
20260506115008 15 21 9.7 20.9 0.00 0.00 0.00 56 1008.2
20260506114758 15 24 11.3 20.9 0.00 0.00 0.00 55 1008.1
20260506114529 15 28 11.3 25.7 0.00 0.00 0.00 54 1008.2
20260506114251 15 13 11.3 25.7 0.00 0.00 0.00 53 1008.2
20260506114008 15 33 9.7 25.7 0.00 0.00 0.00 52 1008.2
20260506113743 15 49 9.7 25.7 0.00 0.00 0.00 52 1008.1
20260506113510 15 26 9.7 24.1 0.00 0.00 0.00 52 1008.2
20260506113253 15 25 9.7 24.1 0.00 0.00 0.00 52 1008.1
20260506113008 15 23 9.7 24.1 0.00 0.00 0.00 52 1008.1
20260506112751 15 23 9.7 24.1 0.00 0.00 0.00 53 1008.1
20260506112528 15 23 9.7 22.5 0.00 0.00 0.00 53 1008.1
20260506112249 15 23 9.7 22.5 0.00 0.00 0.00 53 1008.1
20260506112008 15 22 9.7 22.5 0.00 0.00 0.00 52 1008.1
20260506111754 15 355 9.7 25.7 0.00 0.00 0.00 51 1008.0
20260506111508 15 29 9.7 25.7 0.00 0.00 0.00 51 1008.1
20260506111249 15 19 9.7 25.7 0.00 0.00 0.00 52 1008.0
20260506111009 15 36 11.3 25.7 0.00 0.00 0.00 51 1008.1
20260506110742 15 261 9.7 25.7 0.00 0.00 0.00 51 1008.0
20260506110544 15 49 11.3 25.7 0.00 0.00 0.00 51 1008.1
20260506110508 15 27 11.3 25.7 0.00 0.00 0.00 52 1008.1
20260506110209 15 13 8.0 19.3 0.00 0.00 0.00 58 1008.0
20260506110120 15 30 8.0 19.3 0.00 0.00 0.00 58 1008.0
20260506110008 15 23 11.3 25.7 0.00 0.00 0.00 53 1008.1
20260506105850 15 49 11.3 25.7 0.00 0.00 0.00 53 1008.0
20260506105529 15 25 11.3 25.7 0.00 0.00 0.00 54 1008.1
20260506105432 15 41 8.0 17.7 0.00 0.00 0.00 58 1008.0
20260506105325 15 78 9.7 24.1 0.00 0.00 0.00 56 1007.9
20260506105030 15 23 11.3 22.5 0.00 0.00 0.00 58 1008.0
20260506104507 15 28 8.0 19.3 0.00 0.00 0.00 57 1008.0
20260506104010 15 31 8.0 17.7 0.00 0.00 0.00 57 1008.1
20260506103653 14 5 11.3 22.5 0.00 0.00 0.00 59 1007.9
20260506103559 14 18 11.3 24.1 0.00 0.00 0.00 59 1007.9
20260506103508 15 31 8.0 17.7 0.00 0.00 0.00 57 1008.0
20260506103354 15 33 8.0 17.7 0.00 0.00 0.00 57 1007.9
20260506103008 15 32 8.0 17.7 0.00 0.00 0.00 58 1008.0
20260506102830 15 30 9.7 24.1 0.00 0.00 0.00 58 1007.8
20260506102509 15 27 9.7 24.1 0.00 0.00 0.00 59 1007.9
20260506102009 14 26 11.3 24.1 0.00 0.00 0.00 59 1008.0
20260506101508 14 27 9.7 22.5 0.00 0.00 0.00 60 1007.9
20260506101243 14 13 8.0 22.5 0.00 0.00 0.00 62 1007.9
20260506101029 14 29 9.7 22.5 0.00 0.00 0.00 62 1007.8
20260506100734 14 0 8.0 17.7 0.00 0.00 0.00 63 1007.7
20260506100508 13 26 9.7 22.5 0.00 0.00 0.00 64 1007.8
20260506100238 13 31 9.7 22.5 0.00 0.00 0.00 65 1007.8
20260506100010 13 26 9.7 22.5 0.00 0.00 0.00 66 1007.8
20260506095740 13 34 9.7 22.5 0.00 0.00 0.00 66 1007.8
20260506095508 13 27 8.0 17.7 0.00 0.00 0.00 66 1007.8
20260506095240 13 42 6.4 16.1 0.00 0.00 0.00 67 1007.7
20260506095029 13 16 6.4 16.1 0.00 0.00 0.00 67 1007.8
20260506094736 13 61 6.4 16.1 0.00 0.00 0.00 68 1007.8
20260506094542 13 20 6.4 19.3 0.00 0.00 0.00 68 1007.7
20260506094531 13 5 8.0 16.1 0.00 0.00 0.00 68 1007.7
20260506094511 13 21 6.4 16.1 0.00 0.00 0.00 68 1007.8
20260506094333 13 348 8.0 16.1 0.00 0.00 0.00 68 1007.7
20260506094029 13 32 6.4 16.1 0.00 0.00 0.00 68 1007.8
20260506093508 13 32 6.4 16.1 0.00 0.00 0.00 69 1007.7
20260506093235 13 68 8.0 19.3 0.00 0.00 0.00 68 1007.7
20260506093009 13 25 6.4 19.3 0.00 0.00 0.00 68 1007.7
20260506092508 13 21 8.0 19.3 0.00 0.00 0.00 68 1007.8
20260506092237 13 5 8.0 19.3 0.00 0.00 0.00 69 1007.6
20260506092009 13 17 9.7 22.5 0.00 0.00 0.00 69 1007.7
20260506091733 13 18 11.3 22.5 0.00 0.00 0.00 68 1007.6
20260506091508 13 10 9.7 22.5 0.00 0.00 0.00 69 1007.7
20260506091233 13 22 9.7 22.5 0.00 0.00 0.00 70 1007.6
20260506091008 13 14 8.0 20.9 0.00 0.00 0.00 70 1007.6
20260506090930 13 20 9.7 22.5 0.00 0.00 0.00 70 1007.5
20260506090814 13 20 8.0 20.9 0.00 0.00 0.00 70 1007.6
20260506090507 13 25 8.0 19.3 0.00 0.00 0.00 70 1007.6
20260506090008 13 23 9.7 22.5 0.00 0.00 0.00 70 1007.6
20260506085738 13 33 8.0 22.5 0.00 0.00 0.00 70 1007.5
20260506085508 13 18 8.0 22.5 0.00 0.00 0.00 71 1007.5
20260506085233 13 21 6.4 20.9 0.00 0.00 0.00 72 1007.4
20260506085008 13 13 8.0 20.9 0.00 0.00 0.00 72 1007.5
20260506084732 13 23 8.0 20.9 0.00 0.00 0.00 73 1007.5
20260506084529 13 15 8.0 20.9 0.00 0.00 0.00 73 1007.4
20260506084226 13 15 11.3 20.9 0.00 0.00 0.00 73 1007.4
20260506084008 13 18 9.7 20.9 0.00 0.00 0.00 74 1007.5
20260506083723 13 31 9.7 20.9 0.00 0.00 0.00 74 1007.4
20260506083508 13 23 8.0 20.9 0.00 0.00 0.00 74 1007.5
20260506083225 12 5 6.4 20.9 0.00 0.00 0.00 75 1007.4
20260506083008 12 29 6.4 16.1 0.00 0.00 0.00 76 1007.4
20260506082723 12 45 6.4 16.1 0.00 0.00 0.00 76 1007.3
20260506082529 12 28 6.4 14.5 0.00 0.00 0.00 77 1007.4
20260506082221 12 9 4.8 17.7 0.00 0.00 0.00 79 1007.3
20260506082009 12 21 4.8 17.7 0.00 0.00 0.00 80 1007.3
20260506081822 11 327 4.8 9.7 0.00 0.00 0.00 82 1007.4
20260506081740 12 25 4.8 17.7 0.00 0.00 0.00 81 1007.3
20260506081508 12 15 4.8 17.7 0.00 0.00 0.00 82 1007.4
20260506081008 11 15 4.8 9.7 0.00 0.00 0.00 82 1007.4
20260506080730 11 9 4.8 8.0 0.00 0.00 0.00 83 1007.4
20260506080508 11 16 4.8 14.5 0.00 0.00 0.00 83 1007.4
20260506080221 11 0 4.8 14.5 0.00 0.00 0.00 83 1007.3